COSMOS 1275 DEB, 15780

Orbit data source: Space-Track

COSMOS 1275 DEB, 15780 is space debris in LEO originally from a launch on Thu, 04 Jun 1981 UTC launched from the Plesetsk Missile And Space Complex (PKMTR). Debris objects in space refer to the collection of defunct objects orbiting the Earth. Examples of debris include non-operational satellites, rocket bodies, and fragments generated from explosions, collisions, or faulty payload assembly.

Loading next visibility...
Identifier
15780, 1981-053KE
Orbit
LEO
Country
Flag of CISCIS
Related business
Manufacturer
Unknown
Mission
Spacecraft
Bus & Motor
Unknown
Mass
Unknown
Launch date (UTC)
1981-06-04 (45 years ago)
Launch vehicle
Unknown
Launch site
Plesetsk Missile And Space Complex (PKMTR)
Object type
Payload
Rocket body
Debris
Shape & HBR
Unknown shape, 0.1 m
Radar Cross Section
Small (<0.1 m²)

Expand to show TLE details & history
Last TLE update: 18 hours ago

TLE from 18 hours ago
0 COSMOS 1275 DEB
1 15780U 81053KE  25350.11228437  .00001216  00000-0  86656-3 0  9995
2 15780  82.8162  33.9347 0050443 310.7517  68.6768 13.96075364 54687
Epoch: 2025-12-16T02:41Z
TLE epoch observation values (Epoch: 2025-12-16T02:41:41.369Z)
Latitude
19.80673°
Longitude
-88.9007°
Altitude
896.713 km
Speed
7.412 km/s
True Right ascension
02h 26m 05s
True Declination
19° 41' 58"
Sunlit
Object was in full shadow at epoch
Visualization orbit readout
Latitude
Unknown
Longitude
Unknown
Altitude
Unknown
Speed
Unknown
Apparent Right ascension
Unknown
Apparent Declination
Unknown
Sunlit
N/A
Visualization observer readout
Local Sidereal Time
19:34:49
Azimuth
Unknown
Elevation
Unknown
Doppler factor
Unknown
Orbital elements
Apogee altitude
941.278 km
Perigee altitude
867.806 km
Semi-major axis
7,282.679 km
Eccentricity
0.00504
Inclination
82.8162°
RAAN
33.9347°
Arg. of periapsis
310.7517°
True anomaly
69.21649°
Mean anomaly
68.6768°
Eccentric anomaly
68.94652°
Mean motion
3.49226 °/min
Orbital period
103.09 mins
BSTAR
0.00086656
Loading maneuver chart data...
Computing Atmospheric mass density...
Loading historical data...
Loading historical data...
Loading historical data...
Loading historical data...
Loading historical data...
Loading historical data...
Loading historical data...

Documentation

Showing up to 5 results
|